| time (UTC) | temp F | wind direction | speed MPH | gust MPH | rain 1hr in | rain 24hr in | rain mn in | humidity % | barometer mb |
| 20260504025104 | 60 | 217 | 5.0 | 7.0 | 0.00 | 0.00 | 0.00 | 44 | 978.7 |
| 20260504023534 | 60 | 240 | 5.0 | 7.0 | 0.00 | 0.00 | 0.00 | 43 | 978.7 |
| 20260504022004 | 60 | 234 | 6.0 | 6.0 | 0.00 | 0.00 | 0.00 | 43 | 978.7 |
| 20260504020434 | 60 | 243 | 3.0 | 5.0 | 0.00 | 0.00 | 0.00 | 43 | 978.7 |
| 20260504014904 | 60 | 244 | 3.0 | 6.0 | 0.00 | 0.00 | 0.00 | 43 | 978.0 |
| 20260504013334 | 60 | 248 | 3.0 | 5.0 | 0.00 | 0.00 | 0.00 | 43 | 978.0 |
| 20260504011804 | 60 | 240 | 3.0 | 6.0 | 0.00 | 0.00 | 0.00 | 43 | 978.0 |
| 20260504010234 | 60 | 241 | 3.0 | 5.0 | 0.00 | 0.00 | 0.00 | 43 | 978.0 |
| 20260504004734 | 61 | 241 | 2.0 | 5.0 | 0.00 | 0.00 | 0.00 | 43 | 977.6 |
| 20260504003204 | 61 | 240 | 3.0 | 5.0 | 0.00 | 0.00 | 0.00 | 43 | 977.9 |
| 20260504001634 | 62 | 225 | 2.0 | 3.0 | 0.00 | 0.00 | 0.00 | 42 | 978.0 |
| 20260504000104 | 62 | 233 | 2.0 | 3.0 | 0.00 | 0.00 | 0.00 | 40 | 978.0 |
| 20260503234533 | 63 | 240 | 3.0 | 5.0 | 0.00 | 0.00 | 0.00 | 39 | 978.3 |
| 20260503233004 | 64 | 258 | 2.0 | 6.0 | 0.00 | 0.00 | 0.00 | 38 | 978.7 |
| 20260503231433 | 64 | 245 | 1.0 | 7.0 | 0.00 | 0.00 | 0.00 | 37 | 978.7 |
| 20260503225903 | 64 | 160 | 0.0 | 5.0 | 0.00 | 0.00 | 0.00 | 37 | 979.0 |
| 20260503224333 | 64 | 234 | 6.0 | 8.0 | 0.00 | 0.00 | 0.00 | 35 | 979.3 |
| 20260503222833 | 65 | 273 | 2.0 | 2.0 | 0.00 | 0.00 | 0.00 | 38 | 979.3 |
| 20260503221333 | 65 | 247 | 5.0 | 6.0 | 0.00 | 0.00 | 0.00 | 36 | 979.3 |
| 20260503215803 | 66 | 250 | 5.0 | 8.0 | 0.00 | 0.01 | 0.00 | 37 | 979.7 |
| 20260503214233 | 65 | 248 | 5.0 | 9.0 | 0.00 | 0.08 | 0.00 | 35 | 980.0 |
| 20260503212703 | 65 | 233 | 6.0 | 6.0 | 0.00 | 0.08 | 0.00 | 37 | 980.0 |
| 20260503211133 | 65 | 20 | 0.0 | 5.0 | 0.00 | 0.08 | 0.00 | 35 | 980.4 |
| 20260503205604 | 66 | 225 | 2.0 | 3.0 | 0.00 | 0.08 | 0.00 | 34 | 980.4 |
| 20260503204033 | 65 | 269 | 2.0 | 3.0 | 0.00 | 0.08 | 0.00 | 37 | 981.0 |
| 20260503202503 | 64 | 200 | 0.0 | 2.0 | 0.00 | 0.08 | 0.00 | 36 | 981.0 |
| 20260503200933 | 65 | 214 | 3.0 | 9.0 | 0.00 | 0.08 | 0.00 | 35 | 981.4 |
| 20260503195403 | 65 | 103 | 2.0 | 3.0 | 0.00 | 0.08 | 0.00 | 37 | 981.7 |
| 20260503194157 | 64 | 232 | 5.0 | 8.0 | 0.00 | 0.08 | 0.00 | 36 | 982.1 |
| 20260503194001 | 64 | 232 | 5.0 | 8.0 | 0.00 | 0.08 | 0.00 | 36 | 982.1 |
| 20260503193833 | 64 | 232 | 5.0 | 8.0 | 0.00 | 0.08 | 0.00 | 36 | 982.1 |
| 20260503192305 | 64 | 231 | 3.0 | 7.0 | 0.00 | 0.08 | 0.00 | 35 | 982.1 |
| 20260503190733 | 63 | 24 | 1.0 | 2.0 | 0.00 | 0.08 | 0.00 | 36 | 982.4 |
| 20260503185203 | 62 | 220 | 3.0 | 8.0 | 0.00 | 0.08 | 0.00 | 35 | 982.4 |
| 20260503183633 | 62 | 157 | 3.0 | 6.0 | 0.00 | 0.08 | 0.00 | 39 | 982.7 |
| 20260503182103 | 61 | 250 | 5.0 | 8.0 | 0.00 | 0.08 | 0.00 | 36 | 982.7 |
| 20260503180533 | 61 | 256 | 2.0 | 8.0 | 0.00 | 0.08 | 0.00 | 37 | 983.1 |
| 20260503175003 | 60 | 242 | 6.0 | 8.0 | 0.00 | 0.08 | 0.00 | 40 | 983.2 |
| 20260503173433 | 61 | 241 | 5.0 | 5.0 | 0.00 | 0.08 | 0.00 | 41 | 983.4 |
| 20260503171903 | 60 | 245 | 3.0 | 7.0 | 0.00 | 0.08 | 0.00 | 39 | 983.7 |
| 20260503170333 | 59 | 230 | 5.0 | 7.0 | 0.00 | 0.08 | 0.00 | 38 | 983.9 |
| 20260503160133 | 57 | 245 | 2.0 | 6.0 | 0.00 | 0.08 | 0.00 | 44 | 984.4 |
| 20260503131133 | 47 | 218 | 2.0 | 2.0 | 0.00 | 0.08 | 0.00 | 81 | 984.4 |
| 20260503090403 | 42 | 80 | 1.0 | 2.0 | 0.00 | 0.08 | 0.00 | 96 | 982.7 |
| 20260503080232 | 42 | 78 | 0.0 | 2.0 | 0.00 | 0.08 | 0.00 | 98 | 982.7 |
| 20260503071603 | 43 | 42 | 2.0 | 2.0 | 0.00 | 0.08 | 0.00 | 98 | 982.7 |
| 20260503054332 | 44 | 103 | 1.0 | 3.0 | 0.00 | 0.08 | 0.00 | 97 | 982.4 |
| 20260503052802 | 44 | 110 | 2.0 | 2.0 | 0.00 | 0.08 | 0.00 | 97 | 982.4 |
| 20260503051232 | 44 | 100 | 0.0 | 2.0 | 0.00 | 0.08 | 0.00 | 97 | 982.7 |
| 20260503045703 | 44 | 62 | 3.0 | 5.0 | 0.00 | 0.08 | 0.08 | 97 | 982.1 |
| 20260503044132 | 44 | 135 | 2.0 | 2.0 | 0.00 | 0.08 | 0.08 | 97 | 982.1 |
| 20260503042602 | 44 | 93 | 1.0 | 2.0 | 0.00 | 0.08 | 0.08 | 97 | 982.1 |
| 20260503041032 | 44 | 112 | 3.0 | 3.0 | 0.00 | 0.08 | 0.08 | 97 | 982.1 |
| 20260503035502 | 45 | 82 | 1.0 | 3.0 | 0.00 | 0.08 | 0.08 | 97 | 981.8 |
| 20260503033932 | 44 | 101 | 1.0 | 2.0 | 0.00 | 0.08 | 0.08 | 96 | 981.9 |
| 20260503032432 | 44 | 94 | 2.0 | 2.0 | 0.00 | 0.08 | 0.08 | 96 | 982.0 |
| 20260503030902 | 44 | 50 | 2.0 | 3.0 | 0.00 | 0.08 | 0.08 | 96 | 981.7 |